Time,TemperatureF,DewpointF,PressureIn,WindDirection,WindDirectionDegrees,WindSpeedMPH,WindSpeedGustMPH,Humidity,HourlyPrecipIn,Conditions,Clouds,dailyrainin,SolarRadiationWatts/m^2,SoftwareType,DateUTC
2013-04-23 00:14:00,28.7,26.0,30.34,NNE,26,0.0,10.0,91,0.00,,,0.30,0,weatherlink.com 1.10,2013-04-23 05:14:00,
2013-04-23 00:29:00,28.8,27.0,30.36,NNE,17,0.0,10.0,92,0.00,,,0.30,0,weatherlink.com 1.10,2013-04-23 05:29:00,
2013-04-23 00:44:00,28.6,27.0,30.34,North,355,2.0,13.0,92,0.00,,,0.30,0,weatherlink.com 1.10,2013-04-23 05:44:00,
2013-04-23 00:59:00,28.3,26.0,30.35,NE,51,0.0,11.0,92,0.00,,,0.30,0,weatherlink.com 1.10,2013-04-23 05:59:00,
2013-04-23 01:14:00,28.0,26.0,30.34,North,355,5.0,10.0,92,0.00,,,0.00,0,weatherlink.com 1.10,2013-04-23 06:14:00,
2013-04-23 01:29:00,27.8,26.0,30.37,NNW,330,2.0,10.0,93,0.00,,,0.00,0,weatherlink.com 1.10,2013-04-23 06:29:00,
2013-04-23 01:45:00,27.7,26.0,30.35,NNW,332,0.0,6.0,93,0.00,,,0.00,0,weatherlink.com 1.10,2013-04-23 06:45:00,
2013-04-23 02:00:00,27.6,26.0,30.34,NNE,12,0.0,8.0,93,0.00,,,0.00,0,weatherlink.com 1.10,2013-04-23 07:00:00,
2013-04-23 02:15:00,27.6,26.0,30.34,North,10,0.0,6.0,94,0.00,,,0.00,0,weatherlink.com 1.10,2013-04-23 07:15:00,
2013-04-23 02:30:00,27.6,26.0,30.34,NNW,336,0.0,6.0,94,0.00,,,0.00,0,weatherlink.com 1.10,2013-04-23 07:30:00,
2013-04-23 02:45:00,27.5,26.0,30.33,North,351,6.0,9.0,94,0.00,,,0.00,0,weatherlink.com 1.10,2013-04-23 07:45:00,
2013-04-23 03:00:00,27.3,26.0,30.33,NNW,332,1.0,7.0,94,0.00,,,0.00,0,weatherlink.com 1.10,2013-04-23 08:00:00,
2013-04-23 03:15:00,27.1,26.0,30.30,North,10,4.0,12.0,94,0.00,,,0.00,0,weatherlink.com 1.10,2013-04-23 08:15:00,
2013-04-23 03:30:00,26.9,25.0,30.31,North,351,3.0,10.0,94,0.00,,,0.00,0,weatherlink.com 1.10,2013-04-23 08:30:00,
2013-04-23 03:45:00,26.6,25.0,30.31,NNW,342,0.0,12.0,94,0.00,,,0.00,0,weatherlink.com 1.10,2013-04-23 08:45:00,
2013-04-23 04:00:00,26.3,25.0,30.32,NW,319,0.0,6.0,94,0.00,,,0.00,0,weatherlink.com 1.10,2013-04-23 09:00:00,
2013-04-23 04:15:00,25.8,24.0,30.33,North,355,1.0,6.0,94,0.00,,,0.00,0,weatherlink.com 1.10,2013-04-23 09:15:00,
2013-04-23 04:30:00,25.8,24.0,30.34,NNW,340,0.0,6.0,94,0.00,,,0.00,0,weatherlink.com 1.10,2013-04-23 09:30:00,
2013-04-23 04:45:00,25.9,24.0,30.34,NW,320,0.0,7.0,93,0.00,,,0.00,0,weatherlink.com 1.10,2013-04-23 09:45:00,
2013-04-23 05:00:00,25.9,24.0,30.34,NNW,333,0.0,9.0,93,0.00,,,0.00,0,weatherlink.com 1.10,2013-04-23 10:00:00,
2013-04-23 05:15:00,25.9,24.0,30.36,North,360,0.0,8.0,92,0.00,,,0.00,0,weatherlink.com 1.10,2013-04-23 10:15:00,
2013-04-23 05:30:00,25.8,24.0,30.35,NNW,337,0.0,9.0,92,0.00,,,0.00,0,weatherlink.com 1.10,2013-04-23 10:30:00,
2013-04-23 05:45:00,25.7,24.0,30.35,NNW,336,0.0,10.0,91,0.00,,,0.00,0,weatherlink.com 1.10,2013-04-23 10:45:00,
2013-04-23 06:00:00,25.7,24.0,30.35,NE,36,0.0,6.0,91,0.00,,,0.00,0,weatherlink.com 1.10,2013-04-23 11:00:00,
2013-04-23 06:15:00,25.6,23.0,30.35,NNE,26,0.0,8.0,91,0.00,,,0.00,0,weatherlink.com 1.10,2013-04-23 11:15:00,
2013-04-23 06:30:00,25.5,23.0,30.34,NNE,22,0.0,4.0,90,0.00,,,0.00,0,weatherlink.com 1.10,2013-04-23 11:30:00,
2013-04-23 06:45:00,25.6,23.0,30.34,North,5,0.0,4.0,90,0.00,,,0.00,0,weatherlink.com 1.10,2013-04-23 11:45:00,
2013-04-23 07:00:00,25.7,23.0,30.36,NW,314,0.0,8.0,90,0.00,,,0.00,0,weatherlink.com 1.10,2013-04-23 12:00:00,
2013-04-23 07:15:00,25.8,23.0,30.38,NW,313,0.0,7.0,89,0.00,,,0.00,11,weatherlink.com 1.10,2013-04-23 12:15:00,
2013-04-23 07:30:00,26.0,23.0,30.37,West,271,0.0,4.0,89,0.00,,,0.00,37,weatherlink.com 1.10,2013-04-23 12:30:00,
2013-04-23 07:45:00,26.1,23.0,30.38,NNW,330,0.0,7.0,89,0.00,,,0.00,16,weatherlink.com 1.10,2013-04-23 12:45:00,
2013-04-23 08:00:00,26.1,23.0,30.38,NW,324,1.0,5.0,89,0.00,,,0.00,12,weatherlink.com 1.10,2013-04-23 13:00:00,
2013-04-23 08:15:00,26.1,23.0,30.37,NW,323,0.0,6.0,89,0.00,,,0.00,51,weatherlink.com 1.10,2013-04-23 13:15:00,
2013-04-23 08:30:00,26.7,24.0,30.38,WNW,301,0.0,3.0,88,0.00,,,0.00,58,weatherlink.com 1.10,2013-04-23 13:30:00,
2013-04-23 08:45:00,27.1,24.0,30.38,West,275,0.0,3.0,87,0.00,,,0.00,81,weatherlink.com 1.10,2013-04-23 13:45:00,
2013-04-23 09:00:00,27.4,24.0,30.39,NNW,327,0.0,6.0,85,0.00,,,0.00,67,weatherlink.com 1.10,2013-04-23 14:00:00,
2013-04-23 09:15:00,27.6,23.0,30.39,NNW,332,0.0,3.0,84,0.00,,,0.00,120,weatherlink.com 1.10,2013-04-23 14:15:00,
2013-04-23 09:30:00,28.2,24.0,30.38,NNW,328,0.0,4.0,83,0.00,,,0.00,139,weatherlink.com 1.10,2013-04-23 14:30:00,
2013-04-23 09:45:00,28.7,24.0,30.38,NNW,331,0.0,7.0,82,0.00,,,0.00,132,weatherlink.com 1.10,2013-04-23 14:45:00,
2013-04-23 10:00:00,28.5,24.0,30.38,NW,325,0.0,7.0,82,0.00,,,0.00,171,weatherlink.com 1.10,2013-04-23 15:00:00,
2013-04-23 10:15:00,28.7,24.0,30.37,North,360,8.0,8.0,81,0.00,,,0.00,213,weatherlink.com 1.10,2013-04-23 15:15:00,
2013-04-23 10:30:00,29.6,24.0,30.37,North,5,0.0,5.0,81,0.00,,,0.00,353,weatherlink.com 1.10,2013-04-23 15:30:00,
2013-04-23 10:46:00,31.0,26.0,30.38,NNW,345,0.0,5.0,80,0.00,,,0.00,531,weatherlink.com 1.10,2013-04-23 15:46:00,
2013-04-23 11:01:00,31.3,26.0,30.37,WSW,246,2.0,8.0,79,0.00,,,0.00,329,weatherlink.com 1.10,2013-04-23 16:01:00,
2013-04-23 11:16:00,31.4,25.0,30.38,NNW,345,0.0,12.0,78,0.00,,,0.00,448,weatherlink.com 1.10,2013-04-23 16:16:00,
2013-04-23 11:31:00,31.3,25.0,30.38,North,5,1.0,12.0,76,0.00,,,0.00,306,weatherlink.com 1.10,2013-04-23 16:31:00,
2013-04-23 11:46:00,31.6,25.0,30.37,NNW,329,0.0,7.0,76,0.00,,,0.00,408,weatherlink.com 1.10,2013-04-23 16:46:00,
2013-04-23 12:01:00,33.0,26.0,30.37,North,5,3.0,8.0,76,0.00,,,0.00,520,weatherlink.com 1.10,2013-04-23 17:01:00,
2013-04-23 12:16:00,33.5,26.0,30.37,NNW,342,0.0,10.0,74,0.00,,,0.00,506,weatherlink.com 1.10,2013-04-23 17:16:00,
2013-04-23 12:31:00,33.7,27.0,30.37,North,360,4.0,6.0,75,0.00,,,0.00,327,weatherlink.com 1.10,2013-04-23 17:31:00,
2013-04-23 12:46:00,34.5,27.0,30.36,NNW,329,0.0,5.0,74,0.01,,,0.01,352,weatherlink.com 1.10,2013-04-23 17:46:00,
2013-04-23 13:01:00,34.5,27.0,30.36,NNW,327,0.0,13.0,74,0.03,,,0.03,497,weatherlink.com 1.10,2013-04-23 18:01:00,
2013-04-23 13:16:00,34.9,27.0,30.36,WNW,296,5.0,11.0,73,0.06,,,0.06,432,weatherlink.com 1.10,2013-04-23 18:16:00,
2013-04-23 13:31:00,34.8,28.0,30.35,NNW,346,5.0,7.0,76,0.06,,,0.06,536,weatherlink.com 1.10,2013-04-23 18:31:00,
2013-04-23 13:46:00,35.1,29.0,30.35,NNW,336,5.0,12.0,77,0.05,,,0.06,380,weatherlink.com 1.10,2013-04-23 18:46:00,
2013-04-23 14:01:00,34.7,29.0,30.35,North,9,0.0,9.0,78,0.03,,,0.06,401,weatherlink.com 1.10,2013-04-23 19:01:00,
2013-04-23 14:16:00,35.3,27.0,30.34,WNW,297,0.0,13.0,73,0.00,,,0.06,436,weatherlink.com 1.10,2013-04-23 19:16:00,
2013-04-23 14:31:00,36.6,28.0,30.34,North,355,2.0,7.0,72,0.00,,,0.06,578,weatherlink.com 1.10,2013-04-23 19:31:00,
2013-04-23 14:46:00,36.2,28.0,30.33,NNW,331,3.0,12.0,72,0.00,,,0.06,643,weatherlink.com 1.10,2013-04-23 19:46:00,
2013-04-23 15:01:00,36.6,27.0,30.32,NW,308,2.0,14.0,67,0.00,,,0.06,399,weatherlink.com 1.10,2013-04-23 20:01:00,
2013-04-23 15:16:00,38.1,27.0,30.31,NNW,327,5.0,13.0,65,0.00,,,0.06,780,weatherlink.com 1.10,2013-04-23 20:16:00,
2013-04-23 15:31:00,39.6,27.0,30.31,NW,305,1.0,11.0,61,0.00,,,0.06,875,weatherlink.com 1.10,2013-04-23 20:31:00,
2013-04-23 15:46:00,39.0,27.0,30.30,NNE,21,0.0,9.0,63,0.00,,,0.06,979,weatherlink.com 1.10,2013-04-23 20:46:00,
2013-04-23 16:01:00,40.3,27.0,30.29,NNW,333,3.0,8.0,59,0.00,,,0.06,849,weatherlink.com 1.10,2013-04-23 21:01:00,
2013-04-23 16:16:00,41.3,27.0,30.29,NW,319,2.0,9.0,57,0.00,,,0.06,831,weatherlink.com 1.10,2013-04-23 21:16:00,
2013-04-23 16:31:00,41.5,28.0,30.28,NNE,15,2.0,8.0,59,0.00,,,0.06,882,weatherlink.com 1.10,2013-04-23 21:31:00,
2013-04-23 16:46:00,40.5,25.0,30.28,NW,325,0.0,5.0,55,0.00,,,0.06,325,weatherlink.com 1.10,2013-04-23 21:46:00,
2013-04-23 17:01:00,40.9,25.0,30.27,North,5,0.0,9.0,54,0.00,,,0.06,250,weatherlink.com 1.10,2013-04-23 22:01:00,
2013-04-23 17:16:00,42.7,25.0,30.26,NNW,338,5.0,11.0,50,0.00,,,0.06,751,weatherlink.com 1.10,2013-04-23 22:16:00,
2013-04-23 17:31:00,43.5,25.0,30.26,NNE,15,1.0,8.0,49,0.00,,,0.06,691,weatherlink.com 1.10,2013-04-23 22:31:00,
2013-04-23 17:46:00,41.3,24.0,30.25,North,5,0.0,7.0,51,0.00,,,0.06,121,weatherlink.com 1.10,2013-04-23 22:46:00,
2013-04-23 18:01:00,42.0,25.0,30.25,NW,309,0.0,6.0,52,0.00,,,0.06,163,weatherlink.com 1.10,2013-04-23 23:01:00,
2013-04-23 18:16:00,43.4,24.0,30.24,North,355,1.0,6.0,47,0.00,,,0.06,338,weatherlink.com 1.10,2013-04-23 23:16:00,
2013-04-23 18:32:00,44.2,24.0,30.25,North,355,3.0,11.0,46,0.00,,,0.06,339,weatherlink.com 1.10,2013-04-23 23:32:00,
2013-04-23 18:47:00,43.7,25.0,30.25,WNW,297,3.0,6.0,48,0.00,,,0.06,190,weatherlink.com 1.10,2013-04-23 23:47:00,
2013-04-23 19:02:00,42.8,23.0,30.25,West,271,2.0,6.0,46,0.00,,,0.06,243,weatherlink.com 1.10,2013-04-24 00:02:00,
2013-04-23 19:17:00,42.1,21.0,30.26,NW,304,4.0,12.0,43,0.00,,,0.06,181,weatherlink.com 1.10,2013-04-24 00:17:00,
2013-04-23 19:32:00,42.3,22.0,30.26,WNW,282,1.0,8.0,44,0.00,,,0.06,116,weatherlink.com 1.10,2013-04-24 00:32:00,
2013-04-23 19:47:00,41.1,21.0,30.25,NW,320,0.0,6.0,45,0.00,,,0.06,51,weatherlink.com 1.10,2013-04-24 00:47:00,
2013-04-23 20:02:00,39.1,21.0,30.25,NW,319,3.0,4.0,49,0.00,,,0.06,21,weatherlink.com 1.10,2013-04-24 01:02:00,
2013-04-23 20:17:00,37.2,22.0,30.25,NW,313,0.0,1.0,55,0.00,,,0.06,12,weatherlink.com 1.10,2013-04-24 01:17:00,
2013-04-23 20:32:00,35.8,21.0,30.26,NW,313,0.0,0.0,55,0.00,,,0.06,0,weatherlink.com 1.10,2013-04-24 01:32:00,
2013-04-23 20:47:00,34.6,22.0,30.26,NW,313,0.0,0.0,60,0.00,,,0.06,0,weatherlink.com 1.10,2013-04-24 01:47:00,
2013-04-23 21:02:00,34.7,21.0,30.27,NW,313,0.0,0.0,57,0.00,,,0.06,0,weatherlink.com 1.10,2013-04-24 02:02:00,
2013-04-23 21:17:00,33.5,22.0,30.27,NW,313,0.0,0.0,62,0.00,,,0.06,0,weatherlink.com 1.10,2013-04-24 02:17:00,
2013-04-23 21:32:00,33.4,21.0,30.28,NW,313,0.0,0.0,61,0.00,,,0.06,0,weatherlink.com 1.10,2013-04-24 02:32:00,
2013-04-23 21:47:00,33.4,22.0,30.29,NW,313,0.0,0.0,64,0.00,,,0.06,0,weatherlink.com 1.10,2013-04-24 02:47:00,
2013-04-23 22:02:00,33.0,23.0,30.30,NW,313,0.0,0.0,66,0.00,,,0.06,0,weatherlink.com 1.10,2013-04-24 03:02:00,
2013-04-23 22:17:00,32.1,21.0,30.30,East,88,1.0,3.0,65,0.00,,,0.06,0,weatherlink.com 1.10,2013-04-24 03:17:00,
2013-04-23 22:32:00,32.6,22.0,30.31,East,88,0.0,0.0,64,0.00,,,0.06,0,weatherlink.com 1.10,2013-04-24 03:32:00,
2013-04-23 22:47:00,33.5,21.0,30.32,East,88,0.0,0.0,61,0.00,,,0.06,0,weatherlink.com 1.10,2013-04-24 03:47:00,
2013-04-23 23:02:00,31.6,22.0,30.33,SW,220,0.0,7.0,67,0.00,,,0.06,0,weatherlink.com 1.10,2013-04-24 04:02:00,
2013-04-23 23:17:00,31.7,22.0,30.32,SW,228,0.0,0.0,68,0.00,,,0.06,0,weatherlink.com 1.10,2013-04-24 04:17:00,
2013-04-23 23:32:00,32.7,21.0,30.32,SW,228,0.0,0.0,62,0.00,,,0.06,0,weatherlink.com 1.10,2013-04-24 04:32:00,
2013-04-23 23:47:00,32.9,20.0,30.32,SW,228,0.0,0.0,60,0.00,,,0.06,0,weatherlink.com 1.10,2013-04-24 04:47:00,